Meath Environmental Platform

Observations for Trim Patrick St

Time AQI Temp °C Hum % Pres Pa CO μg/m³ H₂S μg/m³ NO μg/m³ NO₂ μg/m³ O₃ μg/m³ SO₂ μg/m³ PM1 μg/m³ PM2.5 μg/m³ PM10 μg/m³
Monday 3 August 2026
11:31 2 28 47 69,065 0 0 2.18 7.71 82.2 9.07 5.43 11.19 12.31
11:30 2 27.9 45 69,065 0 0 2.02 7.98 84.21 7.95 5.43 10.57 11.63
11:29 2 27.8 48 69,069 0 0 2.26 3.55 71.96 8.34 4.57 9.61 10.57
11:28 2 27.6 48 69,076 0 0 2.25 9.38 96.73 7.75 3.71 9.63 10.59
11:27 2 27.6 48 69,051 0 0 2.28 2.46 70.89 7.54 4.57 10.37 11.41
11:26 2 27.6 42 69,051 0 0 1.75 4.3 75.23 7.91 3.71 10.05 11.05
11:25 2 27.6 46 69,053 0 0 2.06 1.34 70.99 8.31 4.57 11.3 12.43
11:24 2 27.7 44 69,055 0 0 1.85 4.23 76.89 8.7 3.71 9.91 10.9
11:23 2 27.7 44 69,055 0 0 1.8 2.67 69.78 6.88 5.43 11.46 12.61
11:22 2 27.7 45 69,084 0 0 1.93 0.47 68.02 7.62 3.71 9.05 9.96
11:21 2 27.7 45 69,092 0 0 1.9 9.76 75.64 9.43 5.43 11.39 12.53
11:20 2 27.7 47 69,104 0 0 2.12 8.58 70.91 8.21 4.57 10.47 11.51
11:19 2 27.7 45 69,116 0 0 1.98 7.47 70.92 7.06 3.71 9.85 10.84
11:18 2 27.7 47 69,102 0 0 2.18 8.57 71.01 9.04 3.71 9.67 10.63
11:16 2 27.7 45 69,080 0 0 2 6.72 77.65 8.36 5.43 10.62 11.68
11:15 2 27.7 46 69,084 0 0 2.07 6.75 73.21 8.75 4.57 9.78 10.76
11:14 2 27.8 44 69,090 0 0 1.94 6.34 72.59 6.88 3.71 9.89 10.88
11:13 2 27.8 46 69,072 0 0 2.08 1.04 67.47 7 4.57 9.77 10.75
11:12 2 27.8 48 69,074 0 0 2.22 11.13 68.83 8.38 4.57 9.64 10.6
11:10 2 27.8 46 69,063 0 0 2.12 9.69 69.09 7.9 4.57 9.77 10.74